NOAA 16 DEB, 41716

Orbit data source: Space-Track

NOAA 16 DEB, 41716 is space debris in SSO originally from a launch on Thu, 21 Sep 2000 UTC launched from the Air Force Western Test Range (AFWTR). Debris objects in space refer to the collection of defunct objects orbiting the Earth. Examples of debris include non-operational satellites, rocket bodies, and fragments generated from explosions, collisions, or faulty payload assembly.

Loading next visibility...
Identifier
41716, 2000-055PW
Orbit
SSO
Country
Flag of USUS
Related business
Manufacturer
Unknown
Mission
Spacecraft
Bus & Motor
Unknown
Mass
Unknown
Launch date (UTC)
2000-09-21 (26 years ago)
Launch vehicle
Unknown
Launch site
Air Force Western Test Range (AFWTR)
Object type
Payload
Rocket body
Debris
Shape & HBR
Unknown shape, 0.1 m
Radar Cross Section
Medium (>0.1 m² and <1 m²)

Expand to show TLE details & history
Last TLE update: 2 days ago

TLE from 2 days ago
0 NOAA 16 DEB
1 41716U 00055PW  26170.45695679  .00002325  00000-0  94571-3 0  9997
2 41716  98.6313 238.1169 0006377 151.8630 208.2897 14.28481398526678
Epoch: 2026-06-19T10:58Z
TLE epoch observation values (Epoch: 2026-06-19T10:58:01.066Z)
Latitude
-0.00004°
Longitude
165.9268°
Altitude
803.77 km
Speed
7.449 km/s
True Right ascension
15h 52m 28s
True Declination
0° 00' 00"
Sunlit
Object was in full shadow at epoch
Visualization orbit readout
Latitude
Unknown
Longitude
Unknown
Altitude
Unknown
Speed
Unknown
Apparent Right ascension
Unknown
Apparent Declination
Unknown
Sunlit
N/A
Visualization observer readout
Local Sidereal Time
17:38:32
Azimuth
Unknown
Elevation
Unknown
Doppler factor
Unknown
Orbital elements
Apogee altitude
798.529 km
Perigee altitude
789.381 km
Semi-major axis
7,172.092 km
Eccentricity
0.00064
Inclination
98.6313°
RAAN
238.1169°
Arg. of periapsis
151.863°
True anomaly
208.25509°
Mean anomaly
208.2897°
Eccentric anomaly
208.27239°
Mean motion
3.57334 °/min
Orbital period
100.75 mins
BSTAR
0.00094571
Loading maneuver chart data...
Computing Atmospheric mass density...
Loading historical data...
Loading historical data...
Loading historical data...
Loading historical data...
Loading historical data...
Loading historical data...
Loading historical data...

Documentation

Showing up to 5 results
|